Location: CNYAC Observatory
(43.2150°N, 74.9500°W)
Time: 06:17:35
(UTC-04:00)

Cosmos 1975 Rocket - Visible Passes

Search period start: 29 May 2015 00:00
Search period end: 08 June 2015 00:00
Orbit: 603 x 636 km, 82.5° (Epoch: 28 May)

Date Brightness Start Highest point End Pass type
(mag) Time Alt. Az. Time Alt. Az. Time Alt. Az.
29 May 4.5 03:51:54 10° N 03:55:59 39° ENE 04:00:07 10° SE visible
30 May 3.3 04:09:17 10° N 04:13:39 74° E 04:18:02 10° SSE visible
31 May 5.9 02:50:46 10° NE 02:52:49 13° ENE 02:55:05 10° E visible
31 May 3.1 04:26:54 10° NNW 04:31:12 58° W 04:35:31 10° S visible
01 Jun 5.3 03:07:14 10° NNE 03:10:43 23° ENE 03:14:18 10° SE visible
01 Jun 3.9 04:44:48 10° NNW 04:48:41 31° W 04:52:32 10° SSW visible
02 Jun 4.2 03:24:20 10° N 03:28:29 42° ENE 03:32:41 10° SSE visible
03 Jun 3.1 03:41:44 10° N 03:46:08 80° E 03:50:32 10° S visible
04 Jun 5.8 02:23:00 10° NE 02:25:20 14° ENE 02:27:52 10° ESE visible
04 Jun 3.2 03:59:23 10° NNW 04:03:40 54° W 04:07:54 10° S visible
05 Jun 5.1 02:39:36 10° NNE 02:43:13 25° ENE 02:46:56 10° SE visible
05 Jun 4.1 04:17:19 10° NNW 04:21:09 29° W 04:24:49 11° SSW visible
06 Jun 4.0 02:56:45 10° N 03:00:58 45° ENE 03:04:38 13° SSE visible
06 Jun 4.8 04:35:44 10° NW 04:38:33 16° W 04:41:11 10° SW visible
07 Jun 3.0 03:14:11 10° N 03:18:36 86° E 03:21:38 20° S visible
